This demonstration page uses our WeatherBlox Daily Observations layout. Learn more.

Left ArrowRight Arrow

Hourly Observations for December 25, 2020

Temp ( °F °C ) Dew Point ( °F °C ) Humidity (%) Winds ( mph kmh ) Pressure ( in mb ) Visibility ( mi km ) Precip ( " mm )
12:56 am 00:56 Clear 21 -6.1 18 -7.8 88 88 S 3 6 30.20 1023 10 16 0.00 0.00
1:56 am 01:56 Clear 21 -6.1 19 -7.2 92 92 SW 5 7 30.15 1021 10 16 0.00 0.00
2:56 am 02:56 Clear 23 -5 21 -6.1 92 92 SW 8 13 30.14 1021 10 16 0.00 0.00
3:56 am 03:56 Clear 23 -5 21 -6.1 92 92 SW 8 13 30.11 1020 10 16 0.00 0.00
4:56 am 04:56 Clear 22 -5.6 20 -6.7 92 92 WSW 8 13 30.10 1019 10 16 0.00 0.00
5:56 am 05:56 Clear 23 -5 21 -6.1 92 92 WSW 9 15 30.11 1020 10 16 0.00 0.00
6:56 am 06:56 Clear 24 -4.4 21 -6.1 88 88 WSW 6 9 30.11 1020 10 16 0.00 0.00
7:56 am 07:56 Clear 27 -2.8 21 -6.1 78 78 WNW 8 13 30.09 1019 10 16 0.00 0.00
8:56 am 08:56 Sunny 31 -0.6 23 -5 72 72 W 8 13 30.09 1019 10 16 0.00 0.00
9:56 am 09:56 Sunny 36 2.2 23 -5 59 59 W 9 15 30.09 1019 10 16 0.00 0.00
10:56 am 10:56 Sunny 40 4.4 24 -4.4 53 53 W 9 15 30.09 1019 10 16 0.00 0.00
11:56 am 11:56 Sunny 43 6.1 26 -3.3 51 51 W 8 13 30.07 1018 10 16 0.00 0.00
12:56 pm 12:56 Sunny 46 7.8 28 -2.2 50 50 W 10 17 30.06 1018 10 16 0.00 0.00
1:56 pm 13:56 Sunny 48 8.9 28 -2.2 46 46 W 9 15 30.04 1017 10 16 0.00 0.00
2:56 pm 14:56 Sunny 50 10 29 -1.7 44 44 W 7 11 30.03 1017 10 16 0.00 0.00
3:56 pm 15:56 Sunny 50 10 30 -1.1 46 46 W 6 9 30.03 1017 10 16 0.00 0.00
4:56 pm 16:56 Sunny 45 7.2 31 -0.6 58 58 WSW 9 15 30.03 1017 10 16 0.00 0.00
5:56 pm 17:56 Clear 41 5 30 -1.1 65 65 W 5 7 30.02 1017 10 16 0.00 0.00
6:56 pm 18:56 Clear 35 1.7 29 -1.7 78 78 Calm 30.03 1017 10 16 0.00 0.00
7:56 pm 19:56 Clear 37 2.8 28 -2.2 70 70 WSW 5 7 30.01 1016 10 16 0.00 0.00
8:56 pm 20:56 Clear 34 1.1 27 -2.8 76 76 Calm 30.01 1016 10 16 0.00 0.00
9:56 pm 21:56 Clear 29 -1.7 25 -3.9 85 85 Calm 30.01 1016 10 16 0.00 0.00
10:56 pm 22:56 Clear 31 -0.6 26 -3.3 82 82 Calm 30.01 1016 10 16 0.00 0.00
11:56 pm 23:56 Clear 30 -1.1 26 -3.3 85 85 WNW 5 7 30.01 1016 10 16 0.00 0.00

Powered by AerisWeather